Wind_Speed
18 17 15 15 13 12 11 11 11 12 12 12 13 14 15 16 18 17 17 16 14 12 10 10 11 11 13 14 14 13 13 11 11 12 11 12 12 12 12 12 12 12 11
14 14 13 13 11 10 10 10 10 10 11 12 13 14 16 17 19 19 18 17 15 14 13 12 12 12 12 12 12 12 11 10 11 11 11 11 13 14 13 13 13 13 12
14 12 12 13 12 10 8 8 8 9 10 11 13 14 15 17 18 18 19 19 19 18 17 15 14 13 12 11 12 12 10 11 10 8 11 12 13 14 15 16 15 15 14
13 11 11 12 11 9 8 7 7 7 9 10 12 12 14 15 16 17 19 21 21 21 20 18 16 14 11 11 10 11 10 8 7 7 11 11 11 13 15 15 14 14 14
13 11 10 10 10 8 7 7 7 7 7 8 10 11 12 13 14 15 18 20 21 21 21 20 18 17 14 12 10 10 12 11 9 8 11 11 11 13 14 14 13 13 15
12 10 10 9 9 8 7 6 6 6 6 7 8 9 10 10 11 12 14 17 19 20 21 23 23 22 22 20 14 10 10 13 11 10 11 14 15 15 14 14 14 14 17
11 9 8 8 8 8 7 6 5 5 5 6 6 6 7 7 7 9 11 12 14 16 18 21 21 23 23 21 20 16 9 9 10 9 9 12 16 15 15 14 15 15 17
10 8 7 7 7 7 6 5 4 3 3 3 3 4 3 4 3 4 6 8 9 11 13 16 18 20 21 20 20 20 19 14 9 10 8 7 8 15 15 15 14 15 18
9 7 5 5 4 5 5 5 4 3 3 2 2 1 1 1 2 0 2 4 5 7 9 11 14 16 18 19 19 19 22 18 10 8 8 9 10 14 11 13 14 13 14
9 8 7 4 3 3 4 4 4 3 2 1 0 1 2 2 3 4 4 4 5 6 8 10 11 13 14 15 16 16 18 20 14 12 12 11 13 14 14 13 13 14 13
8 5 3 5 4 3 3 4 3 3 2 1 2 3 3 4 5 6 7 7 8 9 10 11 11 10 12 13 11 12 14 17 14 11 13 14 14 16 19 16 11 13 14
9 8 5 2 4 3 3 4 4 3 3 3 3 3 4 5 6 7 8 9 11 13 13 13 12 11 11 11 9 13 12 16 18 15 17 19 22 22 21 20 16 12 13
3 4 3 6 4 0 2 4 4 4 4 4 4 5 6 6 7 8 9 10 11 13 15 14 14 14 13 13 11 12 13 15 12 13 17 19 19 21 20 20 16 14 14
5 6 1 1 2 2 1 3 4 6 6 5 4 5 6 7 8 10 10 11 11 13 15 14 14 14 15 15 15 15 15 15 14 14 19 20 15 24 23 24 20 17 18
6 8 6 1 2 2 2 3 2 4 5 5 3 3 3 5 8 10 12 12 12 15 15 16 16 15 16 16 17 17 16 17 18 19 19 16 22 28 24 24 25 27 22
10 9 10 5 7 5 5 3 5 5 6 4 5 6 5 6 8 7 10 13 15 16 18 18 19 19 18 18 18 19 20 20 19 23 22 21 22 25 27 23 21 25 25
15 14 13 6 11 10 9 9 9 10 9 8 10 9 8 8 10 12 12 12 15 17 20 21 22 22 22 22 22 23 23 23 22 23 24 25 25 29 27 27 24 22 29
14 16 14 13 14 18 15 13 15 15 15 15 15 14 12 13 13 21 21 19 18 19 22 24 26 26 26 26 26 27 27 27 26 24 25 29 29 31 33 31 27 29 34
18 18 17 20 17 20 22 20 20 23 23 20 19 18 18 17 18 20 21 23 21 21 26 27 27 29 29 28 28 29 29 29 27 27 29 31 35 35 37 38 34 38 38
19 20 24 21 21 22 21 23 26 24 22 22 23 23 23 23 21 24 24 25 22 24 24 24 27 28 30 30 30 30 31 31 31 32 35 37 41 37 38 40 44 44 44
23 26 24 25 27 25 23 22 23 24 26 30 31 27 26 27 27 26 28 29 27 28 30 25 22 27 28 29 32 33 32 34 35 35 37 41 39 37 37 39 41 38 16
25 26 26 29 26 25 25 23 25 29 31 31 28 27 25 28 28 27 29 30 34 34 28 26 27 30 32 36 38 38 38 37 38 36 36 38 38 36 31 26 30 6 3
26 28 26 26 26 25 22 21 24 27 26 27 28 29 27 28 24 27 25 31 26 32 32 38 33 34 34 36 38 38 40 42 45 40 32 28 28 24 24 19 18 9 14
25 28 28 26 24 22 22 23 24 26 29 29 31 29 29 26 27 24 27 31 32 33 34 35 34 33 34 35 34 35 37 38 40 44 34 23 23 20 19 17 10 19 16
30 28 26 25 24 24 23 23 24 25 25 23 21 25 22 24 23 29 28 26 29 30 31 32 34 33 34 35 35 35 35 36 37 38 38 28 17 19 19 21 16 15 19
39 35 27 25 23 24 23 20 19 18 16 18 17 19 21 23 23 24 25 26 27 29 31 31 32 33 32 31 30 30 30 29 30 32 32 29 22 18 16 17 13 17 18
Wind_Direction
134 139 139 134 136 133 129 120 113 109 106 100 91 81 76 72 70 66 62 59 58 55 52 51 52 54 54 52 51 46 43 40 39 43 48 54 54 51 48 44 37 33 27
133 134 135 131 134 133 131 125 117 108 101 95 90 83 81 77 73 70 65 61 58 54 53 52 54 54 54 50 48 43 35 44 43 44 51 56 58 54 47 42 37 32 25
127 136 141 137 140 140 135 128 121 110 101 94 88 87 87 85 81 74 69 64 61 56 51 48 48 47 48 48 50 50 40 50 46 50 56 59 60 50 39 34 30 25 22
128 145 148 143 144 143 137 130 122 112 103 98 95 96 97 95 87 79 72 66 63 59 55 52 48 44 42 46 51 62 71 64 62 54 47 51 56 48 37 31 24 18 13
138 148 151 150 150 150 145 138 130 121 111 106 106 108 107 99 90 82 75 70 66 62 57 54 52 44 35 35 42 62 65 54 56 51 36 39 40 42 35 26 20 11 7
140 148 155 159 161 159 158 152 141 134 128 118 115 117 114 109 99 89 80 75 68 62 55 51 49 46 40 35 35 47 58 44 44 46 46 39 31 24 23 21 14 9 6
140 149 160 166 170 169 171 162 150 143 132 121 118 121 126 121 106 94 81 72 65 60 55 50 44 43 42 38 34 35 38 40 42 34 38 24 17 18 12 17 11 7 3
149 160 174 179 178 177 178 171 154 139 128 116 107 110 133 138 119 87 75 62 53 51 51 48 44 38 33 35 31 32 35 34 34 14 26 347 347 9 5 4 6 6 7
155 176 190 193 190 182 184 182 178 169 158 146 136 118 130 191 206 57 26 32 28 28 31 37 34 30 25 25 31 31 39 32 31 30 9 10 4 360 354 357 353 354 356
165 184 195 200 210 200 196 194 194 197 189 201 273 315 321 305 293 291 306 324 338 347 351 7 17 17 12 23 36 26 20 25 25 15 356 354 357 345 339 339 342 342 346
121 136 193 209 208 230 226 215 215 220 231 254 287 296 304 309 306 304 305 307 308 315 325 336 344 353 354 10 26 16 5 2 5 355 351 353 343 323 316 315 321 323 330
111 84 82 89 215 220 241 252 248 247 250 260 285 297 304 306 309 308 306 306 304 305 308 316 318 322 333 352 354 2 356 350 350 355 350 359 355 341 339 330 303 305 311
126 129 59 58 63 356 277 276 278 278 278 285 288 296 295 294 296 295 299 297 301 301 302 308 310 311 317 331 341 336 330 342 350 352 348 342 337 349 335 327 322 298 299
34 354 240 349 78 58 15 351 311 291 289 278 279 290 290 289 286 283 287 290 297 296 295 298 302 307 309 315 324 328 324 332 335 323 329 340 342 345 326 319 308 308 285
273 318 259 274 264 227 342 321 320 304 291 279 268 276 284 310 295 283 281 283 283 285 288 290 292 296 300 306 313 317 320 326 323 313 313 313 322 330 325 317 301 307 295
264 275 236 260 261 267 255 288 253 266 282 277 259 276 300 307 307 302 286 281 278 280 282 285 288 290 295 300 302 304 307 307 306 304 305 305 312 315 311 313 314 303 292
264 264 236 258 282 288 277 279 259 243 256 267 269 273 282 294 293 298 293 290 282 280 286 292 292 294 296 298 300 302 306 304 304 303 302 302 303 308 306 306 302 298 290
237 247 243 287 293 295 295 281 274 259 252 248 257 264 273 278 283 291 286 285 289 294 295 293 293 295 296 298 300 300 302 302 304 303 304 305 303 304 302 304 294 289 293
253 240 267 280 288 289 290 287 280 275 265 264 270 273 271 272 271 269 285 296 280 293 296 294 290 292 292 293 294 296 299 303 303 302 300 300 305 305 303 302 295 289 291
249 254 262 272 284 287 287 283 281 280 277 275 276 274 276 275 279 277 285 290 271 279 291 292 295 289 290 293 297 299 299 300 297 300 300 302 305 305 302 302 300 296 292
257 255 264 271 274 279 284 286 280 271 276 280 281 279 280 281 277 282 277 279 276 279 287 296 287 295 295 296 297 297 293 293 293 296 296 302 307 307 306 307 301 303 296
259 261 264 271 276 285 285 280 270 265 269 277 274 280 275 280 282 282 281 280 280 291 289 296 289 289 292 295 294 294 294 291 290 295 298 303 301 304 306 315 314 267 261
259 260 265 272 277 281 279 276 267 268 268 271 274 273 278 282 290 284 275 290 280 296 285 296 294 293 294 292 292 295 298 299 301 300 305 304 301 311 317 310 321 257 252
258 259 260 258 259 258 266 274 270 265 263 267 265 270 273 281 280 285 275 289 280 288 289 295 295 293 293 294 296 298 300 303 305 304 311 314 310 312 319 314 320 303 278
250 257 259 257 256 262 268 271 271 271 274 276 281 276 273 280 280 282 284 289 289 290 291 291 293 296 298 299 301 302 303 304 305 307 307 309 301 304 300 316 329 287 286
243 250 255 259 256 265 270 269 269 275 279 280 283 273 278 277 284 285 285 284 284 286 289 293 295 297 300 303 307 308 309 309 310 310 311 311 308 292 293 310 323 318 306
Height
3182 3184 3185 3186 3189 3190 3192 3192 3192 3192 3191 3191 3192 3191 3190 3189 3189 3188 3187 3186 3185 3185 3184 3183 3182 3181 3179 3177 3177 3176 3175 3175 3174 3173 3171 3170 3170 3169 3169 3168 3167 3166 3165
3185 3186 3187 3189 3191 3193 3193 3194 3194 3194 3194 3194 3193 3193 3192 3191 3191 3190 3189 3188 3188 3187 3185 3184 3182 3181 3180 3179 3178 3177 3176 3175 3175 3174 3173 3172 3171 3170 3169 3168 3168 3167 3166
3185 3188 3189 3190 3192 3194 3195 3195 3196 3196 3196 3196 3195 3195 3194 3194 3194 3193 3192 3190 3189 3187 3186 3184 3183 3182 3181 3181 3179 3178 3177 3177 3177 3176 3174 3173 3172 3171 3170 3169 3168 3167 3166
3186 3189 3190 3192 3193 3195 3196 3197 3197 3197 3198 3197 3197 3197 3196 3196 3196 3195 3194 3192 3191 3189 3187 3186 3184 3183 3183 3181 3181 3180 3178 3178 3177 3177 3176 3175 3173 3171 3170 3170 3169 3168 3167
3187 3190 3192 3193 3194 3195 3196 3197 3198 3199 3199 3198 3198 3198 3198 3198 3197 3197 3195 3194 3193 3191 3190 3189 3187 3185 3184 3183 3182 3182 3181 3180 3179 3179 3178 3177 3175 3173 3171 3171 3170 3169 3168
3189 3191 3193 3194 3195 3196 3197 3198 3198 3199 3199 3199 3200 3199 3199 3199 3198 3197 3197 3196 3195 3194 3192 3191 3190 3188 3187 3186 3185 3184 3183 3182 3181 3180 3179 3179 3177 3176 3174 3172 3171 3170 3169
3190 3191 3193 3195 3195 3196 3197 3198 3199 3200 3200 3200 3200 3200 3200 3199 3199 3199 3198 3198 3197 3196 3195 3194 3192 3190 3189 3187 3186 3185 3185 3184 3183 3182 3181 3180 3178 3177 3175 3173 3172 3171 3170
3190 3192 3194 3195 3196 3197 3198 3199 3200 3201 3201 3201 3201 3201 3201 3201 3201 3200 3200 3200 3199 3198 3197 3196 3194 3193 3191 3189 3188 3186 3185 3184 3184 3182 3182 3180 3179 3177 3176 3174 3173 3172 3170
3191 3193 3195 3196 3197 3197 3198 3199 3200 3201 3201 3201 3202 3202 3202 3202 3202 3202 3201 3201 3200 3199 3198 3197 3196 3195 3193 3191 3190 3188 3187 3184 3183 3183 3182 3181 3179 3178 3176 3174 3173 3171 3170
3191 3193 3195 3197 3198 3198 3199 3199 3200 3201 3201 3202 3203 3203 3203 3203 3202 3202 3202 3201 3200 3199 3198 3198 3196 3195 3193 3192 3191 3189 3187 3186 3185 3183 3182 3181 3180 3179 3177 3174 3173 3172 3170
3192 3193 3195 3196 3197 3199 3199 3200 3200 3201 3202 3202 3202 3203 3203 3203 3202 3202 3202 3201 3201 3199 3198 3198 3196 3195 3193 3192 3191 3190 3188 3186 3184 3183 3181 3180 3179 3178 3176 3174 3172 3171 3170
3193 3195 3195 3196 3197 3198 3199 3201 3201 3201 3202 3202 3202 3202 3202 3202 3202 3202 3202 3201 3200 3200 3198 3197 3196 3194 3193 3191 3191 3189 3188 3186 3184 3183 3182 3181 3179 3178 3176 3174 3172 3170 3169
3192 3194 3196 3196 3197 3198 3199 3200 3201 3201 3202 3201 3202 3202 3202 3202 3202 3201 3201 3200 3199 3199 3197 3196 3195 3193 3192 3191 3190 3189 3187 3186 3184 3184 3181 3179 3177 3176 3175 3172 3170 3170 3168
3191 3192 3195 3196 3196 3197 3198 3199 3200 3202 3201 3201 3201 3201 3201 3201 3201 3200 3199 3198 3198 3197 3196 3194 3193 3192 3190 3190 3188 3187 3185 3184 3184 3182 3179 3178 3176 3174 3172 3171 3168 3166 3166
3189 3191 3194 3195 3196 3196 3197 3198 3199 3201 3201 3201 3200 3200 3200 3199 3199 3198 3197 3197 3196 3195 3194 3192 3190 3189 3188 3186 3185 3185 3184 3182 3181 3179 3177 3175 3173 3171 3170 3168 3167 3165 3163
3188 3191 3192 3194 3196 3196 3196 3197 3199 3200 3200 3200 3199 3198 3199 3197 3196 3195 3195 3194 3193 3192 3190 3189 3187 3186 3185 3183 3182 3181 3180 3179 3177 3174 3172 3172 3169 3167 3166 3165 3163 3162 3161
3186 3189 3190 3191 3193 3194 3195 3196 3197 3198 3198 3198 3197 3197 3197 3196 3194 3193 3191 3190 3189 3187 3185 3185 3183 3181 3182 3180 3179 3176 3175 3174 3172 3170 3168 3167 3166 3163 3161 3160 3159 3158 3155
3184 3187 3189 3190 3191 3191 3191 3192 3194 3194 3194 3194 3194 3194 3195 3195 3193 3189 3189 3186 3186 3185 3183 3182 3179 3178 3176 3176 3175 3173 3171 3170 3168 3166 3164 3162 3160 3158 3154 3153 3151 3149 3147
3183 3184 3186 3187 3189 3189 3187 3188 3188 3187 3187 3188 3190 3191 3190 3191 3189 3187 3185 3184 3181 3182 3181 3178 3176 3173 3173 3171 3170 3169 3167 3165 3164 3162 3160 3157 3155 3151 3147 3144 3143 3141 3140
3180 3181 3183 3183 3184 3185 3184 3185 3182 3180 3182 3185 3186 3186 3186 3186 3185 3183 3182 3181 3178 3178 3176 3174 3173 3171 3167 3166 3165 3164 3163 3160 3158 3156 3153 3150 3147 3143 3141 3136 3130 3129 3127
3173 3175 3177 3178 3180 3181 3181 3180 3179 3176 3178 3179 3180 3180 3181 3180 3179 3179 3177 3176 3174 3173 3171 3169 3168 3166 3163 3162 3160 3159 3157 3155 3152 3150 3147 3143 3139 3135 3133 3129 3121 3117 3117
3169 3171 3172 3173 3173 3174 3174 3175 3174 3176 3175 3174 3175 3176 3176 3175 3174 3173 3172 3170 3169 3166 3164 3165 3164 3161 3158 3155 3153 3151 3149 3149 3146 3145 3142 3138 3133 3130 3127 3121 3114 3111 3113
3162 3165 3166 3166 3167 3168 3169 3170 3170 3170 3170 3169 3169 3170 3169 3170 3169 3167 3165 3164 3162 3160 3159 3157 3156 3155 3152 3150 3147 3145 3140 3137 3132 3135 3138 3132 3128 3125 3122 3118 3113 3112 3112
3159 3161 3163 3165 3166 3166 3166 3166 3165 3164 3165 3163 3163 3162 3161 3163 3163 3162 3161 3159 3158 3156 3153 3151 3149 3147 3145 3144 3141 3139 3134 3131 3127 3122 3126 3126 3123 3119 3118 3115 3113 3113 3112
3155 3157 3160 3161 3161 3161 3160 3160 3159 3158 3158 3158 3157 3156 3156 3156 3155 3154 3153 3152 3151 3150 3148 3145 3143 3140 3139 3137 3134 3132 3130 3126 3123 3118 3116 3117 3119 3115 3114 3111 3110 3110 3112
3150 3152 3154 3154 3154 3154 3154 3154 3154 3154 3153 3152 3151 3151 3150 3149 3149 3148 3148 3147 3146 3144 3142 3139 3137 3135 3133 3131 3128 3125 3122 3121 3117 3114 3111 3111 3110 3111 3110 3107 3106 3105 3106